Regional Weather Roundup
Issued by NWS Charleston, SC

Current Version | Previous Version | Graphics & Text | Print | Product List | Glossary On
Versions: 1 2 3 4 5 6 7 8 9 10 11 12 13 14 15 16 17 18 19 20 21 22 23 24 25 26 27 28 29 30 31 32 33 34 35 36 37 38 39 40 41 42 43 44 45 46 47 48 49 50
689 ASUS42 KCHS 160827 RWRCHS Regional Weather Roundup National Weather Service Charleston SC 300 AM EST SAT DEC 16 2017 NOTE: "fair" indicates few or no clouds below 12,000 feet with no significant weather and/or obstructions to visibility. Not all stations are quality controlled. Use data with caution, especially dewpoint observations. SCZ027-030-031-034>040-042>050-160900- ...Southeast South Carolina... CITY SKY/WX TMP DP RH WIND PRES REMARKS N Charleston CLOUDY 41 29 62 NW7 30.20R Waterfront Prk N/A 46 31 55 NW7 30.04R Mount Pleasant FAIR 43 32 65 NW8 30.20R Johns Island FAIR 43 30 61 NW8 30.20R Pinopolis N/A 45 34 65 NW13 30.12R Moncks Corner FAIR 37 27 65 CALM 30.21R Summerville FAIR 39 30 70 CALM 30.22R Beaufort MCAS PTCLDY 42 30 62 NW6 30.21R Beaufort Arpt FAIR 41 32 70 NW6 30.21R Hilton Head Is PTCLDY 45 27 49 NW8G14 30.21R Walterboro CLOUDY 36 30 80 NW5 30.22R WCI 32 Allendale FAIR 34 27 75 CALM 30.21S ...Southern Midlands and Pee Dee... CITY SKY/WX TMP DP RH WIND PRES REMARKS Georgetown FAIR 34 34 100 CALM 30.21R Kingstree FAIR 32 30 93 CALM 30.21R Orangeburg CLEAR 35 26 69 W5 30.21R WCI 31 Barnwell N/A 32 27 80 CALM 30.22S Aiken FAIR 28 23 80 W5 30.23R WCI 23 Manning FAIR 32 30 93 MISG 30.21S Columbia PTCLDY 31 27 85 W5 30.20R WCI 26 Sumter CLEAR 36 26 66 NW6 30.17R WCI 32 Florence CLEAR 35 28 75 N6 30.20R WCI 30 Myrtle Beach CLEAR 38 33 82 CALM 30.20R N Myrtle Beach CLEAR 36 32 85 CALM 30.18R $$ GAZ063-065-086>088-099>101-113>116-118-119-134>141-150-160900- ...Southeast Georgia... CITY SKY/WX TMP DP RH WIND PRES REMARKS Savannah Arpt MOCLDY 42 26 53 NW9 30.22R Hunter AAF MOCLDY 44 26 49 NW9 30.18R Fort Stewart CLOUDY 43 26 52 NW7 N/A Statesboro CLOUDY 37 28 70 NW3 30.23R Sylvania MOSUNNY 36 30 79 NW3 30.23R Claxton FAIR 39 30 69 W5 30.24R WCI 36 ...CSRA, Central and far Southeast Georgia... CITY SKY/WX TMP DP RH WIND PRES REMARKS Thomson CLOUDY 27 23 84 N3 30.26R Augusta-Bush PTCLDY 28 24 85 CALM 30.22R Augusta-Daniel CLOUDY 34 24 67 CALM 30.22R Swainsboro FAIR 34 28 80 NW6 30.22S WCI 29 Vidalia PTCLDY 37 30 75 NW3 30.23S Eastman FAIR 35 23 62 CALM 30.27S Hazlehurst FAIR 40 20 44 NW6 30.23R WCI 36 Alma CLOUDY 44 27 51 NW7 30.22R Waycross PTCLDY 45 28 51 N7 30.23R Jesup NOT AVBL Baxley FAIR 39 28 65 N6 30.23R WCI 35 Brunswick CLOUDY 46 32 57 NW5 30.21R Saint Simons CLOUDY 50 35 56 NW8 30.19R $$ SCZ027-028-034-036>038-045-046-048>050-GAZ119-141-160900- ...Lake and Supplemental Coastal Observations... STATION/POSITION TIME TEMP WIND PRES WAVE SWELL AIR SEA DIR/SP/G HT/PER HT/PER/DIR (UTC) (F) (DEG/KT/KT) (MB) (FT/S) (FT/S/D) Winyah Bay 0730 41 330/ 3 1022.0R Lake Murray 0820 35 300/ 6/ 9 1022.0 ACE Basin NERRS 0745 42 300/ 1 1022.0S Fort Pulaski 0800 44 53 320/ 9/ 13 1022.9 Sapelo Island 0800 48 330/ 7 1023.0 $$ ANZ835-935-AMZ111-154-330-350-352-354-370-450-454-472-160900- ...C-MAN and Buoy Observations... STATION/POSITION TIME TEMP WIND PRES WAVE SWELL AIR SEA DIR/SP/G HT/PER HT/PER/DIR (UTC) (F) (DEG/KT/KT) (MB) (FT/S) (FT/S/D) Buoy 41004 0810 54 73 340/ 14/ 19 1021.0 Buoy 41008 0750 51 58 330/ 16/ 17 1022.0R 2/ 4 Folly Beach CMAN 0800 44 320/ 5/ 8 1022.8R Capers Nearshore 0808 44 56 330/ 16/ 21 1021.8R STATION/POSITION TIME TEMP WIND PRES WAVE SWELL AIR SEA DIR/SP/G HT/PER HT/PER/DIR (UTC) (F) (DEG/KT/KT) (MB) (FT/S) (FT/S/D) 5E St. Marys GA 0800 62 N/A 2/ 3 Frying Pan Buoy 0810 50 68 360/ 16/ 21 1021.2 Buoy 41025 0810 45 73 330/ 19/ 25 1020.3 Cape Lookout NC 0800 330/ 15/ 17 1021.4R Buoy 41002 0750 70 74 290/ 25/ 29 1017.1R 11/ 8 Buoy 41010 NOT AVBL St Augustine FL 0800 55 63 330/ 9/ 10 1022.3S $$

USA.gov is the U.S. government's official web portal to all federal, state and local government web resources and services.